,Coso Junction,Coso Junction
,PM10_1HR,PM10_1HR
,,
Date,Value,Null Code
01-Nov-2019 00:00,14.1,
01-Nov-2019 01:00,12.5,
01-Nov-2019 02:00,12.2,
01-Nov-2019 03:00,14.7,
01-Nov-2019 04:00,14.2,
01-Nov-2019 05:00,14,
01-Nov-2019 06:00,13.8,
01-Nov-2019 07:00,17,
01-Nov-2019 08:00,20.4,
01-Nov-2019 09:00,13.7,
01-Nov-2019 10:00,14.2,
01-Nov-2019 11:00,11.2,
01-Nov-2019 12:00,8.3,
01-Nov-2019 13:00,10.1,
01-Nov-2019 14:00,15.7,
01-Nov-2019 15:00,11.5,
01-Nov-2019 16:00,12,
01-Nov-2019 17:00,9.4,
01-Nov-2019 18:00,10.3,
01-Nov-2019 19:00,9.7,
01-Nov-2019 20:00,11.4,
01-Nov-2019 21:00,9.7,
01-Nov-2019 22:00,26,
01-Nov-2019 23:00,10.8,
02-Nov-2019 00:00,10.2,
02-Nov-2019 01:00,10.2,
02-Nov-2019 02:00,8.4,
02-Nov-2019 03:00,11.4,
02-Nov-2019 04:00,10.3,
02-Nov-2019 05:00,10.2,
02-Nov-2019 06:00,13.2,
02-Nov-2019 07:00,11.8,
02-Nov-2019 08:00,12,
02-Nov-2019 09:00,10.1,
02-Nov-2019 10:00,8.9,
02-Nov-2019 11:00,8.1,
02-Nov-2019 12:00,5.6,
02-Nov-2019 13:00,6.5,
02-Nov-2019 14:00,8.1,
02-Nov-2019 15:00,8.9,
02-Nov-2019 16:00,12.2,
02-Nov-2019 17:00,10.3,
02-Nov-2019 18:00,10.3,
02-Nov-2019 19:00,8.2,
02-Nov-2019 20:00,15.4,
02-Nov-2019 21:00,18.9,
02-Nov-2019 22:00,6.8,
02-Nov-2019 23:00,8.8,
03-Nov-2019 00:00,12.2,
03-Nov-2019 01:00,8.6,
03-Nov-2019 02:00,9.9,
03-Nov-2019 03:00,7.4,
03-Nov-2019 04:00,9.7,
03-Nov-2019 05:00,11.1,
03-Nov-2019 06:00,12.3,
03-Nov-2019 07:00,12.7,
03-Nov-2019 08:00,9.4,
03-Nov-2019 09:00,9.6,
03-Nov-2019 10:00,10.8,
03-Nov-2019 11:00,7.8,
03-Nov-2019 12:00,7.8,
03-Nov-2019 13:00,8.3,
03-Nov-2019 14:00,6.4,
03-Nov-2019 15:00,9.4,
03-Nov-2019 16:00,9.5,
03-Nov-2019 17:00,7.7,
03-Nov-2019 18:00,8.4,
03-Nov-2019 19:00,7.7,
03-Nov-2019 20:00,9.4,
03-Nov-2019 21:00,8.2,
03-Nov-2019 22:00,8.1,
03-Nov-2019 23:00,9.8,
04-Nov-2019 00:00,10.6,
04-Nov-2019 01:00,11.3,
04-Nov-2019 02:00,9.6,
04-Nov-2019 03:00,8.1,
04-Nov-2019 04:00,10.4,
04-Nov-2019 05:00,9.9,
04-Nov-2019 06:00,11.9,
04-Nov-2019 07:00,12.6,
04-Nov-2019 08:00,14.5,
04-Nov-2019 09:00,10.5,
04-Nov-2019 10:00,11.4,
04-Nov-2019 11:00,10.4,
04-Nov-2019 12:00,8,
04-Nov-2019 13:00,7.9,
04-Nov-2019 14:00,7.3,
04-Nov-2019 15:00,6.7,
04-Nov-2019 16:00,12.7,
04-Nov-2019 17:00,8.4,
04-Nov-2019 18:00,8.2,
04-Nov-2019 19:00,8.3,
04-Nov-2019 20:00,8.4,
04-Nov-2019 21:00,7.5,
04-Nov-2019 22:00,14.7,
04-Nov-2019 23:00,31.5,
05-Nov-2019 00:00,9.3,
05-Nov-2019 01:00,9.9,
05-Nov-2019 02:00,10.1,
05-Nov-2019 03:00,10.5,
05-Nov-2019 04:00,10.7,
05-Nov-2019 05:00,10.1,
05-Nov-2019 06:00,10.1,
05-Nov-2019 07:00,11.6,
05-Nov-2019 08:00,12.7,
05-Nov-2019 09:00,11.6,
05-Nov-2019 10:00,18.5,
05-Nov-2019 11:00,12.5,
05-Nov-2019 12:00,8.3,
05-Nov-2019 13:00,8.1,
05-Nov-2019 14:00,7.1,
05-Nov-2019 15:00,8,
05-Nov-2019 16:00,22.3,
05-Nov-2019 17:00,7.1,
05-Nov-2019 18:00,7.3,
05-Nov-2019 19:00,8.1,
05-Nov-2019 20:00,9,
05-Nov-2019 21:00,7.6,
05-Nov-2019 22:00,7.3,
05-Nov-2019 23:00,24.6,
06-Nov-2019 00:00,46.9,
06-Nov-2019 01:00,12.4,
06-Nov-2019 02:00,10.1,
06-Nov-2019 03:00,10.2,
06-Nov-2019 04:00,8,
06-Nov-2019 05:00,9.2,
06-Nov-2019 06:00,9.9,
06-Nov-2019 07:00,9.6,
06-Nov-2019 08:00,9.9,
06-Nov-2019 09:00,11.6,
06-Nov-2019 10:00,10.7,
06-Nov-2019 11:00,7.5,
06-Nov-2019 12:00,7.6,
06-Nov-2019 13:00,7.7,
06-Nov-2019 14:00,10.2,
06-Nov-2019 15:00,10.8,
06-Nov-2019 16:00,6.6,
06-Nov-2019 17:00,7.7,
06-Nov-2019 18:00,7.5,
06-Nov-2019 19:00,8.2,
06-Nov-2019 20:00,24.8,
06-Nov-2019 21:00,18.2,
06-Nov-2019 22:00,11.1,
06-Nov-2019 23:00,8.5,
07-Nov-2019 00:00,10.1,
07-Nov-2019 01:00,9.7,
07-Nov-2019 02:00,8.3,
07-Nov-2019 03:00,9.9,
07-Nov-2019 04:00,9.6,
07-Nov-2019 05:00,10.4,
07-Nov-2019 06:00,10,
07-Nov-2019 07:00,10.9,
07-Nov-2019 08:00,12.4,
07-Nov-2019 09:00,10.4,
07-Nov-2019 10:00,8.7,
07-Nov-2019 11:00,7.2,
07-Nov-2019 12:00,8.2,
07-Nov-2019 13:00,6.8,
07-Nov-2019 14:00,8.3,
07-Nov-2019 15:00,8.5,
07-Nov-2019 16:00,7.1,
07-Nov-2019 17:00,7.1,
07-Nov-2019 18:00,7.7,
07-Nov-2019 19:00,64.9,
07-Nov-2019 20:00,7.4,
07-Nov-2019 21:00,10,
07-Nov-2019 22:00,9.4,
07-Nov-2019 23:00,10.1,
08-Nov-2019 00:00,8.3,
08-Nov-2019 01:00,5.9,
08-Nov-2019 02:00,8.5,
08-Nov-2019 03:00,10.4,
08-Nov-2019 04:00,8.6,
08-Nov-2019 05:00,7,
08-Nov-2019 06:00,11.4,
08-Nov-2019 07:00,12.3,
08-Nov-2019 08:00,14.9,
08-Nov-2019 09:00,11.9,
08-Nov-2019 10:00,11.8,
08-Nov-2019 11:00,7.2,
08-Nov-2019 12:00,7.1,
08-Nov-2019 13:00,6.1,
08-Nov-2019 14:00,6.3,
08-Nov-2019 15:00,6.8,
08-Nov-2019 16:00,9.7,
08-Nov-2019 17:00,7.9,
08-Nov-2019 18:00,6.3,
08-Nov-2019 19:00,4.8,
08-Nov-2019 20:00,8.9,
08-Nov-2019 21:00,8.2,
08-Nov-2019 22:00,3.3,
08-Nov-2019 23:00,6.2,
09-Nov-2019 00:00,5.3,
09-Nov-2019 01:00,5.6,
09-Nov-2019 02:00,9.2,
09-Nov-2019 03:00,5.5,
09-Nov-2019 04:00,7.2,
09-Nov-2019 05:00,8.5,
09-Nov-2019 06:00,8.4,
09-Nov-2019 07:00,8.9,
09-Nov-2019 08:00,9.1,
09-Nov-2019 09:00,8.8,
09-Nov-2019 10:00,10.4,
09-Nov-2019 11:00,8.1,
09-Nov-2019 12:00,7,
09-Nov-2019 13:00,5.7,
09-Nov-2019 14:00,3.7,
09-Nov-2019 15:00,5.8,
09-Nov-2019 16:00,8.4,
09-Nov-2019 17:00,8.1,
09-Nov-2019 18:00,8.9,
09-Nov-2019 19:00,4.4,
09-Nov-2019 20:00,6,
09-Nov-2019 21:00,4.9,
09-Nov-2019 22:00,4.7,
09-Nov-2019 23:00,8.6,
10-Nov-2019 00:00,5.8,
10-Nov-2019 01:00,10.4,
10-Nov-2019 02:00,6.7,
10-Nov-2019 03:00,6.3,
10-Nov-2019 04:00,7.6,
10-Nov-2019 05:00,11,
10-Nov-2019 06:00,10.1,
10-Nov-2019 07:00,8.9,
10-Nov-2019 08:00,9.4,
10-Nov-2019 09:00,8.2,
10-Nov-2019 10:00,9.1,
10-Nov-2019 11:00,9.6,
10-Nov-2019 12:00,10.7,
10-Nov-2019 13:00,9.7,
10-Nov-2019 14:00,9.6,
10-Nov-2019 15:00,8.9,
10-Nov-2019 16:00,10.1,
10-Nov-2019 17:00,11.2,
10-Nov-2019 18:00,10.3,
10-Nov-2019 19:00,8.5,
10-Nov-2019 20:00,7.6,
10-Nov-2019 21:00,9.2,
10-Nov-2019 22:00,10.6,
10-Nov-2019 23:00,8.7,
11-Nov-2019 00:00,8.4,
11-Nov-2019 01:00,9.7,
11-Nov-2019 02:00,10.2,
11-Nov-2019 03:00,11.5,
11-Nov-2019 04:00,10.7,
11-Nov-2019 05:00,11.6,
11-Nov-2019 06:00,11.8,
11-Nov-2019 07:00,12,
11-Nov-2019 08:00,11.4,
11-Nov-2019 09:00,10.8,
11-Nov-2019 10:00,9.4,
11-Nov-2019 11:00,9.6,
11-Nov-2019 12:00,10.2,
11-Nov-2019 13:00,10.9,
11-Nov-2019 14:00,9.3,
11-Nov-2019 15:00,10.8,
11-Nov-2019 16:00,9,
11-Nov-2019 17:00,6.8,
11-Nov-2019 18:00,8,
11-Nov-2019 19:00,7.7,
11-Nov-2019 20:00,6.2,
11-Nov-2019 21:00,7.3,
11-Nov-2019 22:00,6,
11-Nov-2019 23:00,7.6,
12-Nov-2019 00:00,9.4,
12-Nov-2019 01:00,8.2,
12-Nov-2019 02:00,6.9,
12-Nov-2019 03:00,6.8,
12-Nov-2019 04:00,6.6,
12-Nov-2019 05:00,7.2,
12-Nov-2019 06:00,11.5,
12-Nov-2019 07:00,15.2,
12-Nov-2019 08:00,10.2,
12-Nov-2019 09:00,,BA
12-Nov-2019 10:00,,BA
12-Nov-2019 11:00,3.4,
12-Nov-2019 12:00,4.8,
12-Nov-2019 13:00,5.3,
12-Nov-2019 14:00,3.5,
12-Nov-2019 15:00,4.1,
12-Nov-2019 16:00,5.1,
12-Nov-2019 17:00,6.3,
12-Nov-2019 18:00,6.2,
12-Nov-2019 19:00,5.7,
12-Nov-2019 20:00,4.6,
12-Nov-2019 21:00,7.5,
12-Nov-2019 22:00,5.1,
12-Nov-2019 23:00,70.9,
13-Nov-2019 00:00,13,
13-Nov-2019 01:00,6.6,
13-Nov-2019 02:00,6.2,
13-Nov-2019 03:00,7.4,
13-Nov-2019 04:00,7.4,
13-Nov-2019 05:00,7,
13-Nov-2019 06:00,9.2,
13-Nov-2019 07:00,9.2,
13-Nov-2019 08:00,9,
13-Nov-2019 09:00,8.8,
13-Nov-2019 10:00,9.9,
13-Nov-2019 11:00,8.5,
13-Nov-2019 12:00,7.6,
13-Nov-2019 13:00,16.1,
13-Nov-2019 14:00,6.5,
13-Nov-2019 15:00,11.7,
13-Nov-2019 16:00,16.2,
13-Nov-2019 17:00,10.1,
13-Nov-2019 18:00,8.1,
13-Nov-2019 19:00,8.1,
13-Nov-2019 20:00,7.5,
13-Nov-2019 21:00,7.4,
13-Nov-2019 22:00,10.9,
13-Nov-2019 23:00,69.1,
14-Nov-2019 00:00,27.9,
14-Nov-2019 01:00,13.3,
14-Nov-2019 02:00,10.4,
14-Nov-2019 03:00,8.3,
14-Nov-2019 04:00,8.7,
14-Nov-2019 05:00,14.1,
14-Nov-2019 06:00,10.4,
14-Nov-2019 07:00,11.3,
14-Nov-2019 08:00,9.9,
14-Nov-2019 09:00,14.3,
14-Nov-2019 10:00,10.7,
14-Nov-2019 11:00,10.5,
14-Nov-2019 12:00,12.6,
14-Nov-2019 13:00,13.5,
14-Nov-2019 14:00,15.4,
14-Nov-2019 15:00,19.7,
14-Nov-2019 16:00,14.9,
14-Nov-2019 17:00,34.5,
14-Nov-2019 18:00,36.1,
14-Nov-2019 19:00,15.1,
14-Nov-2019 20:00,15.2,
14-Nov-2019 21:00,28.8,
14-Nov-2019 22:00,19.6,
14-Nov-2019 23:00,32.5,
15-Nov-2019 00:00,14.6,
15-Nov-2019 01:00,11.4,
15-Nov-2019 02:00,10.3,
15-Nov-2019 03:00,11.2,
15-Nov-2019 04:00,11,
15-Nov-2019 05:00,12.7,
15-Nov-2019 06:00,12.2,
15-Nov-2019 07:00,13,
15-Nov-2019 08:00,18.5,
15-Nov-2019 09:00,14.1,
15-Nov-2019 10:00,11.9,
15-Nov-2019 11:00,13,
15-Nov-2019 12:00,9.6,
15-Nov-2019 13:00,10,
15-Nov-2019 14:00,9.3,
15-Nov-2019 15:00,8.4,
15-Nov-2019 16:00,7.1,
15-Nov-2019 17:00,9.5,
15-Nov-2019 18:00,19.4,
15-Nov-2019 19:00,11.1,
15-Nov-2019 20:00,11.3,
15-Nov-2019 21:00,9.3,
15-Nov-2019 22:00,9.7,
15-Nov-2019 23:00,11,
16-Nov-2019 00:00,10.8,
16-Nov-2019 01:00,10.3,
16-Nov-2019 02:00,10.8,
16-Nov-2019 03:00,10.5,
16-Nov-2019 04:00,10.7,
16-Nov-2019 05:00,9.8,
16-Nov-2019 06:00,10.2,
16-Nov-2019 07:00,10.1,
16-Nov-2019 08:00,11.8,
16-Nov-2019 09:00,13,
16-Nov-2019 10:00,12.6,
16-Nov-2019 11:00,11.7,
16-Nov-2019 12:00,10.7,
16-Nov-2019 13:00,9.8,
16-Nov-2019 14:00,9.3,
16-Nov-2019 15:00,8.5,
16-Nov-2019 16:00,10.1,
16-Nov-2019 17:00,8.4,
16-Nov-2019 18:00,8.1,
16-Nov-2019 19:00,8.1,
16-Nov-2019 20:00,7.5,
16-Nov-2019 21:00,8.2,
16-Nov-2019 22:00,8.8,
16-Nov-2019 23:00,8.7,
17-Nov-2019 00:00,8.5,
17-Nov-2019 01:00,7.8,
17-Nov-2019 02:00,6.8,
17-Nov-2019 03:00,7.8,
17-Nov-2019 04:00,7.2,
17-Nov-2019 05:00,7.8,
17-Nov-2019 06:00,9.2,
17-Nov-2019 07:00,8.3,
17-Nov-2019 08:00,9,
17-Nov-2019 09:00,8.3,
17-Nov-2019 10:00,10.9,
17-Nov-2019 11:00,14.2,
17-Nov-2019 12:00,9.2,
17-Nov-2019 13:00,5.1,
17-Nov-2019 14:00,9.4,
17-Nov-2019 15:00,8.1,
17-Nov-2019 16:00,10.1,
17-Nov-2019 17:00,18.3,
17-Nov-2019 18:00,7,
17-Nov-2019 19:00,7.5,
17-Nov-2019 20:00,7,
17-Nov-2019 21:00,8,
17-Nov-2019 22:00,9.9,
17-Nov-2019 23:00,7.2,
18-Nov-2019 00:00,6.6,
18-Nov-2019 01:00,7.2,
18-Nov-2019 02:00,6.4,
18-Nov-2019 03:00,8.2,
18-Nov-2019 04:00,6.9,
18-Nov-2019 05:00,8.4,
18-Nov-2019 06:00,8.4,
18-Nov-2019 07:00,10.9,
18-Nov-2019 08:00,9.6,
18-Nov-2019 09:00,9.6,
18-Nov-2019 10:00,9.9,
18-Nov-2019 11:00,7.2,
18-Nov-2019 12:00,5.7,
18-Nov-2019 13:00,6.6,
18-Nov-2019 14:00,6,
18-Nov-2019 15:00,17,
18-Nov-2019 16:00,6.2,
18-Nov-2019 17:00,6.7,
18-Nov-2019 18:00,5.6,
18-Nov-2019 19:00,5.9,
18-Nov-2019 20:00,23.1,
18-Nov-2019 21:00,23.3,
18-Nov-2019 22:00,7.9,
18-Nov-2019 23:00,7.2,
19-Nov-2019 00:00,6.5,
19-Nov-2019 01:00,9.2,
19-Nov-2019 02:00,6.5,
19-Nov-2019 03:00,7.9,
19-Nov-2019 04:00,6.4,
19-Nov-2019 05:00,13.5,
19-Nov-2019 06:00,21.6,
19-Nov-2019 07:00,8.7,
19-Nov-2019 08:00,11.1,
19-Nov-2019 09:00,10.2,
19-Nov-2019 10:00,15.5,
19-Nov-2019 11:00,15.9,
19-Nov-2019 12:00,19.8,
19-Nov-2019 13:00,17.8,
19-Nov-2019 14:00,13.8,
19-Nov-2019 15:00,19.5,
19-Nov-2019 16:00,11.1,
19-Nov-2019 17:00,6.5,
19-Nov-2019 18:00,8.9,
19-Nov-2019 19:00,10.6,
19-Nov-2019 20:00,7.3,
19-Nov-2019 21:00,11.7,
19-Nov-2019 22:00,14.4,
19-Nov-2019 23:00,16.8,
20-Nov-2019 00:00,15.2,
20-Nov-2019 01:00,14.7,
20-Nov-2019 02:00,13.5,
20-Nov-2019 03:00,13,
20-Nov-2019 04:00,15.3,
20-Nov-2019 05:00,17.1,
20-Nov-2019 06:00,16.1,
20-Nov-2019 07:00,17.9,
20-Nov-2019 08:00,16.1,
20-Nov-2019 09:00,16.4,
20-Nov-2019 10:00,18.9,
20-Nov-2019 11:00,16.2,
20-Nov-2019 12:00,5.1,
20-Nov-2019 13:00,2.3,
20-Nov-2019 14:00,4.1,
20-Nov-2019 15:00,5,
20-Nov-2019 16:00,3.2,
20-Nov-2019 17:00,3.9,
20-Nov-2019 18:00,3.6,
20-Nov-2019 19:00,5.6,
20-Nov-2019 20:00,3.8,
20-Nov-2019 21:00,4.4,
20-Nov-2019 22:00,4.1,
20-Nov-2019 23:00,4.7,
21-Nov-2019 00:00,3.5,
21-Nov-2019 01:00,4.4,
21-Nov-2019 02:00,3.9,
21-Nov-2019 03:00,3.6,
21-Nov-2019 04:00,3.7,
21-Nov-2019 05:00,4.6,
21-Nov-2019 06:00,4.8,
21-Nov-2019 07:00,5.6,
21-Nov-2019 08:00,5.3,
21-Nov-2019 09:00,5.1,
21-Nov-2019 10:00,4.1,
21-Nov-2019 11:00,3.9,
21-Nov-2019 12:00,3.7,
21-Nov-2019 13:00,6.4,
21-Nov-2019 14:00,7.2,
21-Nov-2019 15:00,6.2,
21-Nov-2019 16:00,7.3,
21-Nov-2019 17:00,7.2,
21-Nov-2019 18:00,7.2,
21-Nov-2019 19:00,7.1,
21-Nov-2019 20:00,7.6,
21-Nov-2019 21:00,6.4,
21-Nov-2019 22:00,5.2,
21-Nov-2019 23:00,5.7,
22-Nov-2019 00:00,5.2,
22-Nov-2019 01:00,4.3,
22-Nov-2019 02:00,4.3,
22-Nov-2019 03:00,5.3,
22-Nov-2019 04:00,5.2,
22-Nov-2019 05:00,7.2,
22-Nov-2019 06:00,7.9,
22-Nov-2019 07:00,7.9,
22-Nov-2019 08:00,7.4,
22-Nov-2019 09:00,6.7,
22-Nov-2019 10:00,8.9,
22-Nov-2019 11:00,3.5,
22-Nov-2019 12:00,2.4,
22-Nov-2019 13:00,4.5,
22-Nov-2019 14:00,5.3,
22-Nov-2019 15:00,5.3,
22-Nov-2019 16:00,2.8,
22-Nov-2019 17:00,4.9,
22-Nov-2019 18:00,4.8,
22-Nov-2019 19:00,4.8,
22-Nov-2019 20:00,5.3,
22-Nov-2019 21:00,4.5,
22-Nov-2019 22:00,5.2,
22-Nov-2019 23:00,5,
23-Nov-2019 00:00,4.3,
23-Nov-2019 01:00,4.7,
23-Nov-2019 02:00,4.6,
23-Nov-2019 03:00,4.7,
23-Nov-2019 04:00,6.6,
23-Nov-2019 05:00,6.7,
23-Nov-2019 06:00,7.2,
23-Nov-2019 07:00,7.5,
23-Nov-2019 08:00,8.8,
23-Nov-2019 09:00,7,
23-Nov-2019 10:00,5.6,
23-Nov-2019 11:00,3.4,
23-Nov-2019 12:00,2.6,
23-Nov-2019 13:00,4.5,
23-Nov-2019 14:00,4.8,
23-Nov-2019 15:00,9,
23-Nov-2019 16:00,4,
23-Nov-2019 17:00,6,
23-Nov-2019 18:00,6.7,
23-Nov-2019 19:00,6.2,
23-Nov-2019 20:00,6.1,
23-Nov-2019 21:00,5.5,
23-Nov-2019 22:00,5.1,
23-Nov-2019 23:00,4.8,
24-Nov-2019 00:00,5.5,
24-Nov-2019 01:00,5.1,
24-Nov-2019 02:00,6.9,
24-Nov-2019 03:00,6.1,
24-Nov-2019 04:00,5.2,
24-Nov-2019 05:00,5.6,
24-Nov-2019 06:00,6.1,
24-Nov-2019 07:00,6.6,
24-Nov-2019 08:00,6.7,
24-Nov-2019 09:00,7.2,
24-Nov-2019 10:00,4.2,
24-Nov-2019 11:00,4.1,
24-Nov-2019 12:00,3.8,
24-Nov-2019 13:00,4.4,
24-Nov-2019 14:00,4.7,
24-Nov-2019 15:00,4.9,
24-Nov-2019 16:00,3.3,
24-Nov-2019 17:00,5.7,
24-Nov-2019 18:00,5.3,
24-Nov-2019 19:00,4.9,
24-Nov-2019 20:00,5.4,
24-Nov-2019 21:00,3.8,
24-Nov-2019 22:00,5.4,
24-Nov-2019 23:00,3.7,
25-Nov-2019 00:00,2.4,
25-Nov-2019 01:00,3.9,
25-Nov-2019 02:00,3.1,
25-Nov-2019 03:00,3.8,
25-Nov-2019 04:00,4.3,
25-Nov-2019 05:00,4.6,
25-Nov-2019 06:00,5.2,
25-Nov-2019 07:00,3.9,
25-Nov-2019 08:00,5.9,
25-Nov-2019 09:00,4.3,
25-Nov-2019 10:00,55.3,
25-Nov-2019 11:00,77.3,
25-Nov-2019 12:00,179,
25-Nov-2019 13:00,194.1,
25-Nov-2019 14:00,100,
25-Nov-2019 15:00,77.3,
25-Nov-2019 16:00,36.2,
25-Nov-2019 17:00,18.3,
25-Nov-2019 18:00,16.3,
25-Nov-2019 19:00,11,
25-Nov-2019 20:00,16.9,
25-Nov-2019 21:00,24.4,
25-Nov-2019 22:00,15.1,
25-Nov-2019 23:00,9.3,
26-Nov-2019 00:00,9.8,
26-Nov-2019 01:00,6.7,
26-Nov-2019 02:00,7.7,
26-Nov-2019 03:00,8.4,
26-Nov-2019 04:00,6.2,
26-Nov-2019 05:00,6.1,
26-Nov-2019 06:00,6.7,
26-Nov-2019 07:00,,AX
26-Nov-2019 08:00,6.3,
26-Nov-2019 09:00,4.2,
26-Nov-2019 10:00,2.4,
26-Nov-2019 11:00,3.5,
26-Nov-2019 12:00,6.3,
26-Nov-2019 13:00,7.3,
26-Nov-2019 14:00,11.2,
26-Nov-2019 15:00,10.2,
26-Nov-2019 16:00,12.9,
26-Nov-2019 17:00,13.6,
26-Nov-2019 18:00,13.3,
26-Nov-2019 19:00,11.9,
26-Nov-2019 20:00,18.2,
26-Nov-2019 21:00,14.5,
26-Nov-2019 22:00,13.1,
26-Nov-2019 23:00,14.6,
27-Nov-2019 00:00,16.7,
27-Nov-2019 01:00,20.4,
27-Nov-2019 02:00,21.2,
27-Nov-2019 03:00,19.8,
27-Nov-2019 04:00,21.8,
27-Nov-2019 05:00,15.3,
27-Nov-2019 06:00,8.2,
27-Nov-2019 07:00,8.4,
27-Nov-2019 08:00,3.6,
27-Nov-2019 09:00,2.7,
27-Nov-2019 10:00,2.1,
27-Nov-2019 11:00,1.5,
27-Nov-2019 12:00,-0.5,
27-Nov-2019 13:00,0.1,
27-Nov-2019 14:00,1.7,
27-Nov-2019 15:00,6.9,
27-Nov-2019 16:00,2.8,
27-Nov-2019 17:00,4.5,
27-Nov-2019 18:00,2.3,
27-Nov-2019 19:00,2.7,
27-Nov-2019 20:00,6.1,
27-Nov-2019 21:00,5.1,
27-Nov-2019 22:00,4.1,
27-Nov-2019 23:00,4.5,
28-Nov-2019 00:00,4.5,
28-Nov-2019 01:00,4.5,
28-Nov-2019 02:00,4.2,
28-Nov-2019 03:00,4.6,
28-Nov-2019 04:00,4.5,
28-Nov-2019 05:00,5.5,
28-Nov-2019 06:00,4.2,
28-Nov-2019 07:00,4.2,
28-Nov-2019 08:00,4,
28-Nov-2019 09:00,3.9,
28-Nov-2019 10:00,3.3,
28-Nov-2019 11:00,0.4,
28-Nov-2019 12:00,1.8,
28-Nov-2019 13:00,4.1,
28-Nov-2019 14:00,2.4,
28-Nov-2019 15:00,3.1,
28-Nov-2019 16:00,1.7,
28-Nov-2019 17:00,2.8,
28-Nov-2019 18:00,3.1,
28-Nov-2019 19:00,2.8,
28-Nov-2019 20:00,4.5,
28-Nov-2019 21:00,4.1,
28-Nov-2019 22:00,3.7,
28-Nov-2019 23:00,2.7,
29-Nov-2019 00:00,3.2,
29-Nov-2019 01:00,3.1,
29-Nov-2019 02:00,2.8,
29-Nov-2019 03:00,1.8,
29-Nov-2019 04:00,3.2,
29-Nov-2019 05:00,4.4,
29-Nov-2019 06:00,4.3,
29-Nov-2019 07:00,5,
29-Nov-2019 08:00,4.2,
29-Nov-2019 09:00,4.2,
29-Nov-2019 10:00,4.3,
29-Nov-2019 11:00,4.3,
29-Nov-2019 12:00,4.4,
29-Nov-2019 13:00,4.4,
29-Nov-2019 14:00,1.9,
29-Nov-2019 15:00,4,
29-Nov-2019 16:00,3.1,
29-Nov-2019 17:00,4.4,
29-Nov-2019 18:00,3.8,
29-Nov-2019 19:00,3.5,
29-Nov-2019 20:00,4.3,
29-Nov-2019 21:00,4.9,
29-Nov-2019 22:00,5.7,
29-Nov-2019 23:00,4.4,
30-Nov-2019 00:00,6.1,
30-Nov-2019 01:00,6.3,
30-Nov-2019 02:00,5,
30-Nov-2019 03:00,5.8,
30-Nov-2019 04:00,5.3,
30-Nov-2019 05:00,4.8,
30-Nov-2019 06:00,6.2,
30-Nov-2019 07:00,5.8,
30-Nov-2019 08:00,6.1,
30-Nov-2019 09:00,6.2,
30-Nov-2019 10:00,3.9,
30-Nov-2019 11:00,4.3,
30-Nov-2019 12:00,4.5,
30-Nov-2019 13:00,5.9,
30-Nov-2019 14:00,6.2,
30-Nov-2019 15:00,7.1,
30-Nov-2019 16:00,7.3,
30-Nov-2019 17:00,3.6,
30-Nov-2019 18:00,4.5,
30-Nov-2019 19:00,4.2,
30-Nov-2019 20:00,4.3,
30-Nov-2019 21:00,3.5,
30-Nov-2019 22:00,4.2,
30-Nov-2019 23:00,4.3,
